Showing default

ORBCOMM FM 15, 25418

Orbit data source: Space-Track

ORBCOMM FM 15, 25418 is a payload satellite owned by Orbcomm (US) in LEO that was launched on Sun, 02 Aug 1998 UTC via a PEGASUS XL/HAPS launch vehicle from the Pegasus Launch, Eastern Range Air Space (ERAS). Payloads include a variety of satellites, spacecraft, and rockets equipped with specific instruments for various scientific and technological missions. These include communications satellites like Starlink; space stations such as the ISS; scientific satellites like the Hubble; Earth observation satellites from companies like Planet Labs, Umbra, and HawkEye 360; GPS; miniature CubeSats for education and research; and military/defense satellites.

Loading next visibility...
ORBCOMM FM 15 details
Identifier
25418, 1998-046F
Orbit
LEO
Last TLE update16 hours ago
Origin
Flag of USOrbcomm (US / ORB)
ManufacturerOSC-Germantown
MissionNon-operational Commercial Communications
Bus & MotorMICROSTAR, Unknown motor
Mass42 kg wet, 42 kg dry
Launch date (UTC)
1998-08-02 (26 years ago)
Launch vehicle
PEGASUS XL/HAPS
Launch site
Pegasus Launch, Eastern Range Air Space (ERAS)
Object type
Payload
Rocket body
Debris
Shape & HBRCyl + 2 Pan, 4.3 m
Radar Cross Section1.484 m², Medium (>0.1 m² and < 1m²)

Expand to show TLE details & history

TLE from 16 hours ago
0 ORBCOMM FM 15
1 25418U 98046F   24361.18979678  .00003394  00000-0  11672-2 0  9996
2 25418  44.9969 278.4799 0002712 132.9006 227.2070 14.37603168379347
Epoch: 2024-12-26T04:33Z
Definitive object data (Epoch: 2024-12-26T04:33:18.441Z)
Latitude-0.00002°
Longitude114.98028°
Altitude767.744 km
Speed7.471 km/s
True Right ascension18h 33m 55s
True Declination0° 00' 00"
Sunlit
Object was in daylight at TLE epoch
Visualization TLE readout
Latitude-44.98488°
Longitude27.90564°
Altitude782.24 km
Speed7.462 km/s
Apparent Right ascension10h 32m 01s
Apparent Declination-47° 48' 08"
Sunlit
Object is in daylight
Visualization observer readout
Local Sidereal Time20:13:03
Azimuth240.788° WSW
Elevation-63.986°
Doppler factor1
Orbital elements
Apogee altitude769.913 km
Perigee altitude766.037 km
Semi-major axis7,146.112 km
Eccentricity0.0002712
Inclination44.9969°
RAAN278.4799°
Arg. of periapsis132.9006°
True anomaly227.1842°
Mean anomaly227.207°
Eccentric anomaly227.1956°
Mean motion3.59284 °/min
BSTAR0.0011672
Orbital period100.2 mins
Loading maneuver chart data...

ORBCOMM FM 15 Visibility forecast

Observer location: undefined°, undefined

Span
Click to sort rows by Start time (UTC) header in descending order
Start Az.
Max El. time (UTC)
Max El. Az.
Max El.
End time (UTC)
End Az.
9 mins2024-12-26 21:24:09.626Z209.405° SW2024-12-26 21:28:09.626Z155.962° SSE32.094°2024-12-26 21:33:09.626Z77.82° E
8 mins2024-12-26 23:10:09.626Z260.399° W2024-12-26 23:14:09.626Z19.178° NNE42.493°2024-12-26 23:18:09.626Z64.407° ENE
8 mins2024-12-27 00:56:09.626Z294.948° NW2024-12-27 00:59:09.626Z351.37° N36.856°2024-12-27 01:04:09.626Z74.682° E
9 mins2024-12-27 02:41:09.626Z295.955° NW2024-12-27 02:45:09.626Z27.822° NE44.189°2024-12-27 02:50:09.626Z106.707° ESE
7 mins2024-12-27 04:27:09.626Z269.145° W2024-12-27 04:30:09.626Z216.471° SW29.602°2024-12-27 04:34:09.626Z157.641° S
5 mins2024-12-27 20:45:09.626Z196.182° SSW2024-12-27 20:49:09.626Z133.716° SE27.471°2024-12-27 20:50:09.626Z113.83° SE
|